Weather History for Escanaba, MI

Change the Weather History Date:

Wednesday, September 28, 2011

  Actual Average Record
Temperature  
Mean Temperature 54 °F -  
Max Temperature 66 °F 60 °F 75 °F (1953)
Min Temperature 42 °F 42 °F 28 °F (2000)
Degree Days  
Heating Degree Days 11    
Growing Degree Days 4 (Base 50)    
Moisture  
Dew Point 46 °F    
Average Humidity 77    
Maximum Humidity 93    
Minimum Humidity 49    
Precipitation  
Precipitation 0.00 in - - ()
Sea Level Pressure  
Sea Level Pressure 29.84 in    
Wind  
Wind Speed 2 mph (ESE)    
Max Wind Speed 10 mph    
Max Gust Speed -    
Visibility 6 miles    
Events      
Averages and records for this station are not official NWS values.
T = Trace of Precipitation, MM = Missing Value Source: NWS Daily Summary

Daily Weather History Graph

Daily Weather History Graph

Search for Another Location

Airport:

Trip Planner

Search our weather history database for the weather conditions in past years. The results will help you decide how hot, cold, wet, or windy it might be!

Date:

Astronomy

Sep. 28, 2011 Rise Set
Actual Time 7:42 AM EDT 7:34 PM EDT
Civil Twilight 7:12 AM EDT 8:04 PM EDT
Nautical Twilight 6:38 AM EDT 8:38 PM EDT
Astronomical Twilight 6:02 AM EDT 9:14 PM EDT
Moon 9:20 AM EDT (9/28) 7:53 PM EDT (9/28)
Length of Visible Light 12h 51m
Length of Day
11h 52m
New Moon, 2% of the Moon is Illuminated
Sep 28
New Moon
Oct 3
First Quarter
Oct 11
Full
Oct 19
Last Quarter
Oct 26
New

Hourly Weather History & Observations

Time (EDT) Temp. Windchill Dew Point Humidity Pressure Visibility Wind Dir Wind Speed Gust Speed Precip Events Conditions
12:15 AM 44.6 °F - 41.0 °F 87% 29.87 in 0.2 mi Calm Calm - N/A   Overcast
12:35 AM 44.6 °F - 41.0 °F 87% 29.87 in 0.5 mi Calm Calm - N/A   Overcast
12:55 AM 44.6 °F - 42.8 °F 93% 29.86 in 1.0 mi Calm Calm - N/A   Overcast
1:15 AM 46.4 °F - 42.8 °F 87% 29.86 in 1.5 mi Calm Calm - N/A   Overcast
1:35 AM 46.4 °F - 42.8 °F 87% 29.87 in 0.8 mi Calm Calm - N/A   Overcast
1:55 AM 46.4 °F - 44.6 °F 93% 29.87 in 0.2 mi Calm Calm - N/A   Overcast
2:15 AM 46.4 °F - 42.8 °F 87% 29.86 in 0.2 mi Calm Calm - N/A   Overcast
2:35 AM 46.4 °F 45.2 °F 42.8 °F 87% 29.86 in 0.2 mi WNW 3.5 mph - N/A   Overcast
2:55 AM 44.6 °F - 42.8 °F 93% 29.86 in 0.2 mi Calm Calm - N/A   Overcast
3:15 AM 46.4 °F - 42.8 °F 87% 29.86 in 0.2 mi Calm Calm - N/A   Overcast
3:35 AM 46.4 °F - 42.8 °F 87% 29.86 in 0.2 mi Calm Calm - N/A   Overcast
3:55 AM 46.4 °F - 42.8 °F 87% 29.86 in 0.2 mi Calm Calm - N/A   Overcast
4:15 AM 46.4 °F 45.2 °F 42.8 °F 87% 29.85 in 0.2 mi WNW 3.5 mph - N/A   Overcast
4:35 AM 46.4 °F - 42.8 °F 87% 29.85 in 0.2 mi Calm Calm - N/A   Overcast
4:55 AM 46.4 °F - 42.8 °F 87% 29.85 in 0.2 mi Calm Calm - N/A   Overcast
5:15 AM 46.4 °F - 42.8 °F 87% 29.85 in 0.2 mi Calm Calm - N/A   Overcast
5:35 AM 46.4 °F - 42.8 °F 87% 29.85 in 0.2 mi Calm Calm - N/A   Overcast
5:55 AM 44.6 °F 43.1 °F 39.2 °F 81% 29.85 in 0.2 mi NW 3.5 mph - N/A   Overcast
6:15 AM 44.6 °F 43.1 °F 41.0 °F 87% 29.85 in 0.2 mi NW 3.5 mph - N/A   Overcast
6:35 AM 44.6 °F - 41.0 °F 87% 29.85 in 4.0 mi Calm Calm - N/A   Scattered Clouds
6:55 AM 44.6 °F - 41.0 °F 87% 29.85 in 5.0 mi Calm Calm - N/A   Clear
7:15 AM 44.6 °F - 39.2 °F 81% 29.86 in 5.0 mi Calm Calm - N/A   Clear
7:35 AM 42.8 °F - 39.2 °F 87% 29.86 in 4.0 mi Calm Calm - N/A   Clear
7:55 AM 42.8 °F - 39.2 °F 87% 29.86 in 4.0 mi Calm Calm - N/A   Clear
8:35 AM 44.6 °F - 42.8 °F 93% 29.86 in 5.0 mi Calm Calm - N/A   Clear
8:55 AM 46.4 °F - 44.6 °F 93% 29.86 in 7.0 mi Calm Calm - N/A   Clear
9:15 AM 48.2 °F - 44.6 °F 87% 29.86 in 5.0 mi Calm Calm - N/A   Clear
9:35 AM 50.0 °F - 46.4 °F 87% 29.87 in 8.0 mi North 5.8 mph - N/A   Clear
9:55 AM 50.0 °F - 46.4 °F 87% 29.87 in 9.0 mi North 3.5 mph - N/A   Clear
10:15 AM 53.6 °F - 48.2 °F 82% 29.88 in 9.0 mi NNE 3.5 mph - N/A   Scattered Clouds
10:35 AM 55.4 °F - 50.0 °F 82% 29.87 in 9.0 mi North 3.5 mph - N/A   Mostly Cloudy
10:55 AM 55.4 °F - 50.0 °F 82% 29.87 in 10.0 mi NNW 4.6 mph - N/A   Partly Cloudy
11:15 AM 57.2 °F - 50.0 °F 77% 29.87 in 10.0 mi NNW 3.5 mph - N/A   Clear
11:55 AM 59.0 °F - 50.0 °F 72% 29.87 in 10.0 mi SE 4.6 mph - N/A   Clear
12:15 PM 60.8 °F - 50.0 °F 68% 29.87 in 10.0 mi East 3.5 mph - N/A   Clear
12:35 PM 62.6 °F - 48.2 °F 59% 29.86 in 10.0 mi ESE 5.8 mph - N/A   Clear
12:55 PM 62.6 °F - 50.0 °F 63% 29.86 in 5.0 mi ESE 4.6 mph - N/A   Clear
1:15 PM 62.6 °F - 51.8 °F 68% 29.85 in 10.0 mi SSE 10.4 mph - N/A   Clear
1:35 PM 62.6 °F - 51.8 °F 68% 29.84 in 10.0 mi ESE 4.6 mph - N/A   Clear
1:55 PM 62.6 °F - 51.8 °F 68% 29.84 in 10.0 mi ESE 4.6 mph - N/A   Clear
2:15 PM 64.4 °F - 51.8 °F 64% 29.83 in 8.0 mi Calm Calm - N/A   Clear
2:35 PM 64.4 °F - 48.2 °F 56% 29.82 in 10.0 mi ESE 4.6 mph - N/A   Clear
2:55 PM 64.4 °F - 48.2 °F 56% 29.82 in 10.0 mi SE 4.6 mph - N/A   Clear
3:15 PM 64.4 °F - 51.8 °F 64% 29.81 in 10.0 mi SE 6.9 mph - N/A   Clear
3:35 PM 66.2 °F - 48.2 °F 52% 29.81 in 10.0 mi SSE 6.9 mph - N/A   Clear
3:55 PM 66.2 °F - 46.4 °F 49% 29.81 in 10.0 mi SE 6.9 mph - N/A   Clear
4:15 PM 64.4 °F - 46.4 °F 52% 29.81 in 10.0 mi SSE 6.9 mph - N/A   Clear
4:35 PM 64.4 °F - 46.4 °F 52% 29.81 in 10.0 mi SSE 6.9 mph - N/A   Clear
4:55 PM 64.4 °F - 46.4 °F 52% 29.80 in 1.2 mi SE 5.8 mph - N/A   Clear
5:15 PM 64.4 °F - 48.2 °F 56% 29.80 in 10.0 mi SE 9.2 mph - N/A   Clear
5:35 PM 64.4 °F - 50.0 °F 59% 29.79 in 10.0 mi SSE 9.2 mph - N/A   Clear
6:15 PM 62.6 °F - 51.8 °F 68% 29.79 in 10.0 mi SSE 8.1 mph - N/A   Clear
6:35 PM 62.6 °F - 51.8 °F 68% 29.80 in 10.0 mi South 6.9 mph - N/A   Clear
6:55 PM 62.6 °F - 51.8 °F 68% 29.80 in 10.0 mi Calm Calm - N/A   Clear
7:15 PM 62.6 °F - 51.8 °F 68% 29.80 in 10.0 mi Calm Calm - N/A   Clear
7:35 PM 60.8 °F - 51.8 °F 72% 29.80 in 10.0 mi Calm Calm - N/A   Clear
7:55 PM 57.2 °F - 51.8 °F 82% 29.80 in 10.0 mi Calm Calm - N/A   Clear
8:15 PM 55.4 °F - 50.0 °F 82% 29.79 in 10.0 mi SSE 3.5 mph - N/A   Clear
8:35 PM 55.4 °F - 50.0 °F 82% 29.80 in 10.0 mi WNW 5.8 mph - N/A   Clear
8:55 PM 53.6 °F - 50.0 °F 88% 29.80 in 10.0 mi Calm Calm - N/A   Clear
9:15 PM 53.6 °F - 48.2 °F 82% 29.80 in 7.0 mi Calm Calm - N/A   Clear
9:35 PM 51.8 °F - 48.2 °F 88% 29.80 in 5.0 mi WNW 4.6 mph - N/A   Clear
9:55 PM 51.8 °F - 46.4 °F 82% 29.79 in 5.0 mi Calm Calm - N/A   Clear
10:15 PM 53.6 °F - 48.2 °F 82% 29.79 in 5.0 mi Calm Calm - N/A   Clear
10:35 PM 50.0 °F - 44.6 °F 82% 29.79 in 4.0 mi WNW 3.5 mph - N/A   Clear
10:55 PM 48.2 °F - 44.6 °F 87% 29.79 in 5.0 mi Calm Calm - N/A   Clear
11:15 PM 48.2 °F - 46.4 °F 93% 29.78 in 0.5 mi Calm Calm - N/A   Mostly Cloudy
11:35 PM 48.2 °F - 44.6 °F 87% 29.78 in 0.8 mi Calm Calm - N/A   Mostly Cloudy
11:55 PM 46.4 °F - 42.8 °F 87% 29.77 in 0.8 mi Calm Calm - N/A   Mostly Cloudy